Regional Weather Roundup
Issued by NWS Wakefield, VA

Home | Current Version | Previous Version | Text Only | Print | Product List | Glossary Off
Versions: 1 2 3 4 5 6 7 8 9 10 11 12 13 14 15 16 17 18 19 20 21 22 23 24 25 26 27 28 29 30 31 32 33 34 35 36 37 38 39 40 41 42 43 44 45 46 47 48 49 50

995
ASUS41 KAKQ 190615
RWRAKQ

REGIONAL WEATHER ROUNDUP
NATIONAL WEATHER SERVICE WAKEFIELD VA
200 AM EDT THU OCT 19 2017

Note: "fair" indicates few or no clouds below 12,000 feet with no
significant weather and/or obstructions to visibility. * = Denotes
station may not report precipitation (e.g., rain,snow,etc.),
thunder or fog.

VAZ042-051-052>054-056-190700-
NORTHERN VIRGINIA

CITY           SKY/WX    TMP DP  RH WIND       PRES   REMARKS
WASH NATIONAL  PTCLDY    53  48  83 SW5       30.31S
DULLES         PTCLDY    45  43  93 SE5       30.29F
FORT BELVOIR   PTCLDY    44  43  96 CALM      30.30F
QUANTICO       CLEAR     48  47  96 W7        30.32S
FREDERICKSBRG* CLEAR     44  44 100 CALM      30.30F
STAFFORD*      CLEAR     39  39 100 CALM      30.35S
WARRENTON      CLEAR     38  36  91 CALM      30.29F FOG
CULPEPER*      CLEAR     40  39  94 CALM      30.30F
MANASSAS*      CLEAR     41  40  96 CALM      30.30F
LEESBURG*      CLEAR     45  45 100 CALM      30.29F
WINCHESTER     CLEAR     46  39  76 SW5       30.27S
FRONT ROYAL*   CLEAR     46  41  81 S6        30.26F
LURAY*         CLEAR     41  41 100 CALM      30.28F
$$

VAZ048-049-060>072-079>083-190700-
CENTRAL AND SOUTH CENTRAL VIRGINIA

CITY           SKY/WX    TMP DP  RH WIND       PRES   REMARKS
RICHMOND       PTCLDY    45  43  93 CALM      30.31F
CHESTERFIELD*  NOT AVBL
PETERSBURG*    CLEAR    N/A N/A N/A CALM      30.32F
HANOVER        CLEAR     43  42  97 CALM      30.32F
TAPPAHANNOCK*  CLEAR    N/A N/A N/A CALM      30.32F
QUINTON*       FAIR      44  44 100 CALM      30.31F
CHARLOTTSVILLE CLEAR     46  42  86 W3        30.29F
GORDONSVILLE*  CLEAR     40  40 100 CALM      30.30S
ORANGE*        CLEAR     41  39  93 CALM      30.30F
LOUISA*        CLEAR     37  37 100 CALM      30.30F
BUMPASS*       FAIR      42  42 100 SW3       30.30F
FARMVILLE*     CLEAR     40  40 100 CALM      30.30F FOG
CREWE*         FAIR      38  38 100 CALM      30.31F
FORT PICKETT*  FAIR      43  43 100 CALM      30.32S
CHASE CITY*    FAIR      43  43 100 CALM      30.32S
CLARKSVILLE*   FAIR      41  41 100 CALM      30.32S
SOUTH HILL*    CLOUDY    42  41  97 CALM      30.37F
LAWRENCEVILLE* FAIR      42  41  97 CALM      30.32R
EMPORIA*       CLEAR     41  41 100 CALM      30.33S
$$

VAZ088>098-190700-
SOUTHEAST VIRGINIA

CITY           SKY/WX    TMP DP  RH WIND       PRES   REMARKS
NORFOLK        CLEAR     52  51  97 CALM      30.31S
VIRGINIA BEACH CLEAR     50  47  89 CALM      30.30F
NORFOLK NAVAL  CLEAR     51  48  89 CALM      30.33S
WEST POINT*    CLEAR     42  42 100 CALM      30.34S
SALUDA*        FAIR      47  47 100 CALM      30.32S
NEWPORT NEWS   CLEAR     46  44  93 CALM      30.32S
LANGLEY AFB    CLEAR     49  48  98 CALM      30.31S
FORT EUSTIS    CLEAR     49  45  87 CALM      30.29S
WILLIAMSBURG*  CLEAR     50  50 100 CALM      30.33S
HR EXEC AP*    NOT AVBL
FRANKLIN*      CLEAR     42  40  95 CALM      30.32S
US460-WAKEFLD  CLEAR     44  44 100 CALM      30.32S
$$

VAZ020-022-025-037-045-190700-
WEST CENTRAL AND SOUTHWEST VIRGINIA

CITY           SKY/WX    TMP DP  RH WIND       PRES   REMARKS
STAUNTON*      CLEAR     38  36  92 CALM      30.31S
WAYNESBORO*    CLEAR     41  40  95 CALM      30.30F
HOT SPRINGS VA CLEAR     51  32  48 CALM      30.32F
LYNCHBURG      CLOUDY    42  40  92 CALM      30.31F
DANVILLE       CLEAR     39  32  76 CALM      30.32S
SOUTH BOSTON*  FAIR      38  37  94 CALM      30.32S
MARTINSVILLE   MOCLDY    39  38  97 CALM      30.34F
ROANOKE        PTCLDY    47  42  83 CALM      30.33F
BLACKSBURG     CLEAR     42  41  96 CALM      30.35S
DUBLIN*        CLEAR     44  42  90 CALM      30.34S
MARION*        CLEAR     42  39  89 CALM      30.35S
HILLSVILLE*    CLEAR     48  35  60 CALM      30.32S
RICHLANDS*     FAIR      51  13  21 CALM      30.29F
WISE*          CLEAR     54  41  62 S7        30.30S
ABINGDON*      CLEAR     51  42  70 CALM      30.30S
$$

MDZ021>025-VAZ099-100-190700-
SOUTHERN MARYLAND AND THE DELMARVA PENINSULA

CITY           SKY/WX    TMP DP  RH WIND       PRES   REMARKS
PATUXENT RIVER CLOUDY    54  49  83 SW8       30.30F
BAY BRIDGE APT CLEAR     55  50  82 S3        30.30F
LEONARDTOWN    NOT AVBL
DOVER          CLEAR     50  50 100 S5        30.29F
GEORGETOWN     CLEAR     47  45  93 CALM      30.32F
EASTON         CLEAR     49  46  91 CALM      30.34F
CAMBRIDGE      CLEAR     45  45 100 CALM      30.31S
SALISBURY      CLEAR     43  42  97 CALM      30.32S
OCEAN CITY     CLEAR     45  44  97 CALM      30.33S
WALLOPS ISLAND CLEAR     46  45  96 NW3       30.33S
ACCOMACK*      CLEAR     45  45  98 CALM      30.32S
$$

NCZ012>017-030>032-190700-
NORTH CENTRAL AND EASTERN NORTH CAROLINA

CITY           SKY/WX    TMP DP  RH WIND       PRES   REMARKS
ROANOKE RAPIDS FAIR      43  43 100 CALM      30.31F
RALEIGH        PTCLDY    44  44 100 CALM      30.32S
ELIZABETH CITY CLEAR     59  56  89 NE8       30.30F
AHOSKIE*       CLEAR     46  46 100 CALM      30.31F
EDENTON*       CLEAR     54  52  93 CALM      30.31S
CURRITUCK*     CLEAR     52  51  98 CALM      30.31F
KILL DEVIL HLS CLEAR     64  56  76 CALM      30.29S
MANTEO         CLEAR    N/A N/A N/A NE5       30.30S
CAPE HATTERAS  MOCLDY    67  63  87 NE6       30.26S
TARBORO*       NOT AVBL
GOLDSBORO      CLEAR     52  50  93 CALM      30.28S FOG
WASHINGTON     PTCLDY    55  53  92 NE5       30.30S
GREENVILLE     FOG       48  48 100 CALM      30.30F VSB 1
NEW BERN       CLOUDY    59  57  93 N5        30.29F
WILMINGTON     CLEAR     57  54  89 NE8       30.26F
$$

VAZ048-190700-
ELSEWHERE

CITY           SKY/WX    TMP DP  RH WIND       PRES   REMARKS
HARRISBURG PA  PTCLDY    51  48  89 SE7       30.26F
BALTIMORE      MOCLDY    46  45  96 CALM      30.29F
ANNAPOLIS      PTCLDY    53  53 100 CALM      30.30S
ANDREWS AFB    CLEAR     49  45  84 S6        30.29F
PHILADELPHIA   PTCLDY    56  47  71 SW8       30.30S
HENDERSON NC   CLEAR     44  41  90 CALM      30.32S
GREENSBORO     CLEAR     45  42  89 CALM      30.30F
ROCKY MOUNT    CLEAR     48  48 100 CALM      30.30F
$$

VAZ100-190700-
MARINE

STATION/POSITION TIME  TEMP    WIND        PRES    WAVE   SWELL
                       AIR SEA DIR/SP/G            HT/PER HT/PER
                 (UTC) (F)     (DEG/KT/KT) (MB)    (FT/S) (FT/S)
BRANDYWINE LGT   0536          230/ 12/ 14 1026.6F
CAPE MAY NJ      0548      65  240/  8/ 10 1025.8F
LEWES DE         0542      65  220/  5/  6 1026.2F
15NM E FENWICK I 0550   64 67  240/  8/ 10 1027.0F   3/ 9   3/ 9
OCEAN-CITY-INLET 0548      66  290/  3/  4 1027.0F
WACHAPREAGUE VA  0548      62     CALM     1026.7F
THOMAS POINT MD  0600   60 68  220/ 10/ 10   N/A
GOOSES REEF MD   0520   62     250/ 10/ 12 1026.1
COVE POINT MD    0548          230/  9/ 11 1026.8F
SOLOMONS ISLAND  0548      69  220/ 12/ 12 1025.8F
BISHOPS HEAD MD  0548      63  170/  8/  9 1026.5F
PINEY POINT MD   0548          230/ 10/ 11   N/A
POTOMAC MD       0520   62     210/ 10/ 12 1025.9
CAMBRIDGE MD     0548      66              1026.9F
LEWISETTA VA     0548      65  240/  4/  5 1026.4F
RAPPAHANNOCK LGT 0548          150/  8/  9 1027.1F
STINGRAY PT      0520   63     220/  6/  8 1026.8
YORK RVR RNG VA  0548          200/  5/  6 1026.8F
YORKTOWN VA      0548      70  230/  2/  3 1026.2F
JAMESTOWN VA     0530          110/  2/  2   N/A
DOMINION TERM VA 0548          130/  5/  6 1026.6F
KIPTOPEKE VA     0548      67   90/  4/  5   N/A
CAPE HENRY VA    0548          130/  4/  5   N/A
WILLOUBY STN VA  0536          140/  6/  7 1026.3F
S CRANEY ISL VA  0548          230/  1/  1 1026.2F
CAPE HENRY BUOY  0600      70                N/A     3/ 9
1ST LANDING BUOY 0530   64                 1026.5F
CAPE CHARLES BUO 0551      70                N/A     3/10
64NM E OF VA BCH 0550   67 67   60/  8/ 10 1026.4S   3/ 8   3/ 8
DUCK PIER NC     0548      68   60/  8/  9 1025.5F
44100 DUCK FRF   0505      70                N/A     4/ 8   2/11
44056 DUCK FRF   0600      69                N/A     3/10   2/11
OREGON INLET NC  0542      65   40/  9/ 11 1025.3F
HATTERAS NC      0548      68   40/  8/ 12 1024.4F
DIAMOND SHLS NC  0550   74 82   90/ 10/ 14 1024.0S   5/ 9   5/ 9
CAPE LOOKOUT NC  0600   64     360/ 12/ 14 1023.9F
$$




USA.gov is the U.S. government's official web portal to all federal, state and local government web resources and services.